Date String (YYYY-MM-DD hh:mm:ss) UTC,Instrument flags,Ambient pressure (hPa),Sample flow (lpm),Bypass flow (lpm),Sample temperature (°C),Ambient temperature (°C),ASC tube jacket temperature (°C),LED temperature (°C),Box temperature (°C),Sample RH (%),Span deviation,Mass concentration (μg/m³),Mass concentration (μg/m³),Mass concentration (μg/m³)
DateTimeUTC,F1_M11,P_M11,Q1_M11,Q2_M11,T1_M11,T2_M11,T3_M11,T4_M11,T5_M11,U1_M11,ZSPAN_M11,X0_M11,X2_M11,X1_M11
2023-02-06 01:00:00,,0817.8,4.96,0.00,26.5,24.9,00.0,35.4,28.3,11.2,0001.3,0014.98,0008.42,0007.60
2023-02-06 01:01:00,,0817.9,5.03,0.00,26.5,24.9,00.0,35.4,28.3,11.2,0001.9,0015.71,0008.43,0007.60
2023-02-06 01:02:00,,0818.0,5.03,0.00,26.5,24.9,00.0,35.4,28.3,11.2,0002.0,0015.76,0008.43,0007.59
2023-02-06 01:03:00,,0818.0,4.94,0.00,26.5,24.9,00.0,35.4,28.3,11.2,0002.3,0015.69,0008.40,0007.58
2023-02-06 01:04:00,,0818.0,5.02,0.00,26.5,24.9,00.0,35.3,28.3,11.2,0002.0,0015.70,0008.39,0007.56
2023-02-06 01:05:00,,0818.0,5.03,0.00,26.5,24.9,00.0,35.3,28.3,11.2,0001.5,0015.99,0008.44,0007.57
2023-02-06 01:06:00,,0817.9,4.99,0.00,26.4,24.9,00.0,35.3,28.2,11.3,0001.4,0015.93,0008.45,0007.57
2023-02-06 01:07:00,,0817.8,4.97,0.00,26.4,24.8,00.0,35.3,28.2,11.3,0001.6,0015.44,0008.42,0007.57
2023-02-06 01:08:00,,0817.7,5.03,0.00,26.4,24.8,00.0,35.3,28.2,11.3,0001.7,0015.76,0008.34,0007.56
2023-02-06 01:09:00,,0817.6,5.03,0.00,26.4,24.9,00.0,35.3,28.2,11.3,0002.0,0016.21,0008.35,0007.56
2023-02-06 01:10:00,,0817.6,5.02,0.00,26.4,24.8,00.0,35.3,28.2,11.3,0001.1,0016.30,0008.38,0007.57
2023-02-06 01:11:00,,0817.6,4.95,0.00,26.4,24.8,00.0,35.3,28.2,11.3,0001.4,0016.03,0008.42,0007.59
2023-02-06 01:12:00,,0817.6,5.02,0.00,26.4,24.8,00.0,35.3,28.2,11.3,0000.5,0015.43,0008.43,0007.60
2023-02-06 01:13:00,,0817.8,5.05,0.00,26.4,24.9,00.0,35.3,28.2,11.3,0000.3,0016.06,0008.49,0007.62
2023-02-06 01:14:00,,0817.9,4.94,0.00,26.4,24.8,00.0,35.3,28.2,11.2,0001.7,0016.12,0008.49,0007.61
2023-02-06 01:15:00,,0818.0,5.04,0.00,26.4,24.6,00.0,35.3,28.1,11.2,0002.9,0016.32,0008.51,0007.60
2023-02-06 01:16:00,,0818.0,5.03,0.00,26.3,24.4,00.0,35.3,28.0,11.4,0002.9,0016.25,0008.49,0007.58
2023-02-06 01:17:00,,0817.9,4.96,0.00,26.3,24.3,00.0,35.3,28.0,11.4,0002.2,0015.30,0008.45,0007.56
2023-02-06 01:18:00,,0817.9,4.99,0.00,26.3,24.3,00.0,35.3,28.0,11.5,0001.7,0015.30,0008.40,0007.54
2023-02-06 01:19:00,,0817.8,5.02,0.00,26.2,24.3,00.0,35.2,28.0,11.6,0000.8,0014.84,0008.40,0007.56
2023-02-06 01:20:00,,0817.8,5.01,0.00,26.2,24.4,00.0,35.2,28.0,11.7,0000.5,0014.41,0008.38,0007.54
2023-02-06 01:21:00,,0817.9,4.96,0.00,26.2,24.4,00.0,35.2,28.0,11.8,0001.3,0014.19,0008.37,0007.54
2023-02-06 01:22:00,,0818.0,5.03,0.00,26.2,24.4,00.0,35.2,28.0,11.8,0000.1,0015.17,0008.38,0007.53
2023-02-06 01:23:00,,0818.0,5.01,0.00,26.2,24.4,00.0,35.2,27.9,11.8,0000.0,0015.83,0008.39,0007.54
2023-02-06 01:24:00,,0818.0,4.97,0.00,26.2,24.3,00.0,35.1,27.9,11.8,0000.0,0015.09,0008.40,0007.56
2023-02-06 01:25:00,,0818.0,5.00,0.00,26.1,24.2,00.0,35.1,27.8,11.8,0000.0,0015.19,0008.42,0007.58
2023-02-06 01:26:00,,0818.0,5.03,0.00,26.1,24.2,00.0,35.1,27.8,11.8,0000.0,0015.41,0008.48,0007.62
2023-02-06 01:27:00,,0818.0,4.99,0.00,26.1,24.2,00.0,35.1,27.8,11.8,0000.0,0015.48,0008.56,0007.65
2023-02-06 01:28:00,,0818.0,4.98,0.00,26.1,24.2,00.0,35.1,27.8,11.8,0000.0,0015.48,0008.56,0007.66
2023-02-06 01:29:00,,0817.9,5.02,0.00,26.1,24.2,00.0,35.1,27.8,11.8,0000.5,0015.34,0008.63,0007.68
2023-02-06 01:30:00,,0817.8,5.02,0.00,26.1,24.3,00.0,35.0,27.8,11.8,0002.3,0015.56,0008.68,0007.68
2023-02-06 01:31:00,,0817.8,4.99,0.00,26.1,24.3,00.0,35.0,27.8,11.7,0002.4,0015.65,0008.74,0007.70
2023-02-06 01:32:00,,0817.8,4.97,0.00,26.0,24.4,00.0,35.0,27.8,11.7,0002.6,0016.83,0008.75,0007.71
2023-02-06 01:33:00,,0817.9,5.02,0.00,26.1,24.4,00.0,35.0,27.9,11.6,0002.6,0016.51,0008.70,0007.70
2023-02-06 01:34:00,,0818.0,5.03,0.00,26.1,24.4,00.0,35.0,27.9,11.7,0003.1,0015.95,0008.70,0007.68
2023-02-06 01:35:00,,0818.0,4.96,0.00,26.1,24.4,00.0,35.0,27.8,11.7,0002.6,0016.30,0008.71,0007.67
2023-02-06 01:36:00,,0817.9,5.01,0.00,26.0,24.3,00.0,35.0,27.8,11.8,0002.5,0016.06,0008.74,0007.67
2023-02-06 01:37:00,,0818.1,5.02,0.00,26.0,24.2,00.0,35.0,27.8,11.9,0000.0,0016.22,0008.76,0007.67
2023-02-06 01:38:00,,0818.1,5.02,0.00,26.0,24.2,00.0,34.9,27.8,11.9,0002.5,0016.63,0008.73,0007.66
2023-02-06 01:39:00,,0818.2,4.95,0.00,26.0,24.0,00.0,34.9,27.7,12.0,0000.5,0016.59,0008.72,0007.68
2023-02-06 01:40:00,,0818.2,5.01,0.00,25.9,23.9,00.0,34.9,27.6,12.0,0000.0,0016.63,0008.73,0007.69
2023-02-06 01:41:00,,0818.0,5.02,0.00,25.9,23.7,00.0,34.9,27.5,12.0,0000.0,0016.45,0008.69,0007.68
2023-02-06 01:42:00,,0818.0,5.02,0.00,25.8,23.7,00.0,34.9,27.5,12.0,0000.0,0016.49,0008.64,0007.67
2023-02-06 01:43:00,,0817.9,4.96,0.00,25.8,23.8,00.0,34.8,27.5,12.0,0000.0,0015.85,0008.63,0007.66
2023-02-06 01:44:00,,0817.8,4.99,0.00,25.8,23.9,00.0,34.8,27.5,12.0,0000.0,0015.64,0008.65,0007.65
2023-02-06 01:45:00,,0818.0,5.03,0.00,25.8,24.0,00.0,34.8,27.6,11.9,0000.0,0014.93,0008.64,0007.66
2023-02-06 01:46:00,,0818.1,5.02,0.00,25.8,24.0,00.0,34.8,27.6,11.9,0000.0,0015.16,0008.63,0007.68
2023-02-06 01:47:00,,0818.2,4.96,0.00,25.8,23.9,00.0,34.8,27.5,11.8,0000.0,0015.20,0008.62,0007.70
2023-02-06 01:48:00,,0818.1,4.99,0.00,25.7,23.7,00.0,34.8,27.4,11.9,0001.4,0015.49,0008.63,0007.75
2023-02-06 01:49:00,,0817.9,5.02,0.00,25.7,23.7,00.0,34.7,27.4,11.8,0001.6,0014.67,0008.62,0007.78
2023-02-06 01:50:00,,0817.7,5.02,0.00,25.7,23.8,00.0,34.7,27.4,11.7,0001.5,0014.74,0008.67,0007.80
2023-02-06 01:51:00,,0817.7,4.97,0.00,25.7,23.9,00.0,34.7,27.4,11.7,0001.4,0014.83,0008.72,0007.82
2023-02-06 01:52:00,,0817.8,4.99,0.00,25.7,24.0,00.0,34.7,27.5,11.7,0001.4,0014.92,0008.76,0007.85
2023-02-06 01:53:00,,0817.9,5.01,0.00,25.7,24.0,00.0,34.7,27.5,11.7,0000.5,0014.77,0008.78,0007.89
2023-02-06 01:54:00,,0817.9,5.00,0.00,25.7,24.1,00.0,34.6,27.5,11.7,0001.4,0015.18,0008.83,0007.93
2023-02-06 01:55:00,,0817.9,4.97,0.00,25.7,24.1,00.0,34.6,27.5,11.7,0000.0,0015.24,0008.86,0007.97
2023-02-06 01:56:00,,0818.0,5.03,0.00,25.7,24.1,00.0,34.6,27.5,11.7,0000.1,0015.32,0008.90,0008.00
2023-02-06 01:57:00,,0818.0,5.01,0.00,25.7,24.1,00.0,34.6,27.5,11.7,0000.1,0016.27,0008.93,0008.00
2023-02-06 01:58:00,,0818.2,4.95,0.00,25.7,24.1,00.0,34.6,27.5,11.7,0000.4,0016.49,0008.95,0008.01
2023-02-06 01:59:00,,0818.2,5.02,0.00,25.7,24.0,00.0,34.6,27.5,11.7,0000.8,0016.31,0008.95,0008.01
